TimeCDT,TemperatureF,Dew PointF,Humidity,Sea Level PressureIn,VisibilityMPH,Wind Direction,Wind SpeedMPH,Gust SpeedMPH,PrecipitationIn,Events,Conditions,WindDirDegrees,DateUTC
12:15 AM,46.4,-9999,N/A,30.11,10.0,SW,4.6,-,N/A,,Clear,230,2013-05-06 05:15:00
12:35 AM,44.6,-9999,N/A,30.10,10.0,SW,5.8,-,N/A,,Clear,220,2013-05-06 05:35:00
12:55 AM,44.6,-9999,N/A,30.10,10.0,SW,5.8,-,N/A,,Clear,220,2013-05-06 05:55:00
1:15 AM,46.4,-9999,N/A,30.10,10.0,SW,5.8,-,N/A,,Clear,230,2013-05-06 06:15:00
1:35 AM,46.4,-9999,N/A,30.10,10.0,WSW,6.9,-,N/A,,Clear,240,2013-05-06 06:35:00
1:55 AM,44.6,-9999,N/A,30.10,10.0,SW,4.6,-,N/A,,Clear,230,2013-05-06 06:55:00
2:15 AM,44.6,-9999,N/A,30.10,10.0,WSW,5.8,-,N/A,,Clear,250,2013-05-06 07:15:00
2:35 AM,46.4,-9999,N/A,30.10,10.0,WSW,6.9,-,N/A,,Clear,250,2013-05-06 07:35:00
2:55 AM,46.4,-9999,N/A,30.09,10.0,WSW,6.9,-,N/A,,Clear,240,2013-05-06 07:55:00
3:15 AM,44.6,-9999,N/A,30.09,10.0,SW,5.8,-,N/A,,Clear,230,2013-05-06 08:15:00
3:35 AM,44.6,-9999,N/A,30.09,10.0,SW,4.6,-,N/A,,Clear,230,2013-05-06 08:35:00
3:55 AM,41.0,-9999,N/A,30.09,10.0,SW,5.8,-,N/A,,Clear,220,2013-05-06 08:55:00
4:15 AM,41.0,-9999,N/A,30.09,10.0,West,4.6,-,N/A,,Clear,270,2013-05-06 09:15:00
4:35 AM,42.8,-9999,N/A,30.08,10.0,SW,6.9,-,N/A,,Clear,220,2013-05-06 09:35:00
4:55 AM,41.0,-9999,N/A,30.08,10.0,SW,4.6,-,N/A,,Clear,220,2013-05-06 09:55:00
5:15 AM,39.2,-9999,N/A,30.08,10.0,SSW,3.5,-,N/A,,Clear,200,2013-05-06 10:15:00
5:35 AM,39.2,-9999,N/A,30.08,10.0,Calm,Calm,-,N/A,,Clear,0,2013-05-06 10:35:00
5:55 AM,42.8,-9999,N/A,30.09,10.0,WSW,3.5,-,N/A,,Clear,240,2013-05-06 10:55:00
6:15 AM,39.2,-9999,N/A,30.08,10.0,WSW,5.8,-,N/A,,Clear,240,2013-05-06 11:15:00
6:35 AM,42.8,-9999,N/A,30.08,10.0,WSW,4.6,-,N/A,,Clear,240,2013-05-06 11:35:00
6:55 AM,44.6,-9999,N/A,30.08,10.0,Calm,Calm,-,N/A,,Clear,0,2013-05-06 11:55:00
7:15 AM,46.4,-9999,N/A,30.08,10.0,WSW,4.6,-,N/A,,Clear,240,2013-05-06 12:15:00
7:35 AM,46.4,-9999,N/A,30.08,10.0,West,3.5,-,N/A,,Clear,280,2013-05-06 12:35:00
7:55 AM,50.0,-9999,N/A,30.08,10.0,West,4.6,-,N/A,,Clear,280,2013-05-06 12:55:00
8:35 AM,55.4,-9999,N/A,30.08,10.0,WSW,4.6,-,N/A,,Clear,240,2013-05-06 13:35:00
8:55 AM,57.2,-9999,N/A,30.08,10.0,West,5.8,-,N/A,,Clear,270,2013-05-06 13:55:00
9:15 AM,59.0,-9999,N/A,30.08,10.0,West,6.9,-,N/A,,Clear,260,2013-05-06 14:15:00
9:35 AM,60.8,-9999,N/A,30.08,10.0,West,10.4,-,N/A,,Clear,270,2013-05-06 14:35:00
9:55 AM,62.6,-9999,N/A,30.08,10.0,West,8.1,-,N/A,,Clear,260,2013-05-06 14:55:00
10:15 AM,64.4,-9999,N/A,30.08,10.0,Calm,Calm,-,N/A,,Clear,0,2013-05-06 15:15:00
10:35 AM,64.4,-9999,N/A,30.07,10.0,SW,5.8,-,N/A,,Clear,230,2013-05-06 15:35:00
10:55 AM,64.4,-9999,N/A,30.07,10.0,SSW,6.9,-,N/A,,Clear,210,2013-05-06 15:55:00
11:15 AM,64.4,-9999,N/A,30.06,10.0,SSE,9.2,-,N/A,,Clear,160,2013-05-06 16:15:00
11:35 AM,64.4,-9999,N/A,30.06,10.0,SSE,10.4,-,N/A,,Clear,160,2013-05-06 16:35:00
11:55 AM,64.4,-9999,N/A,30.06,10.0,SSE,12.7,-,N/A,,Clear,160,2013-05-06 16:55:00
12:15 PM,66.2,-9999,N/A,30.06,10.0,South,10.4,-,N/A,,Clear,170,2013-05-06 17:15:00
12:35 PM,66.2,-9999,N/A,30.05,10.0,South,12.7,-,N/A,,Clear,170,2013-05-06 17:35:00
12:55 PM,66.2,-9999,N/A,30.05,10.0,South,13.8,-,N/A,,Clear,180,2013-05-06 17:55:00
1:15 PM,68.0,-9999,N/A,30.05,10.0,South,12.7,-,N/A,,Clear,170,2013-05-06 18:15:00
1:35 PM,68.0,-9999,N/A,30.05,10.0,South,11.5,-,N/A,,Clear,170,2013-05-06 18:35:00
1:55 PM,68.0,-9999,N/A,30.04,10.0,South,12.7,-,N/A,,Clear,180,2013-05-06 18:55:00
2:15 PM,69.8,-9999,N/A,30.04,10.0,South,11.5,16.1,N/A,,Clear,180,2013-05-06 19:15:00
2:35 PM,69.8,-9999,N/A,30.03,10.0,South,11.5,-,N/A,,Clear,170,2013-05-06 19:35:00
2:55 PM,69.8,-9999,N/A,30.02,10.0,SSE,11.5,-,N/A,,Clear,160,2013-05-06 19:55:00
3:15 PM,71.6,-9999,N/A,30.02,10.0,South,10.4,-,N/A,,Clear,180,2013-05-06 20:15:00
3:35 PM,71.6,-9999,N/A,30.01,10.0,South,13.8,18.4,N/A,,Clear,170,2013-05-06 20:35:00
3:55 PM,71.6,-9999,N/A,30.01,10.0,South,10.4,-,N/A,,Clear,170,2013-05-06 20:55:00
4:15 PM,71.6,-9999,N/A,30.00,10.0,South,12.7,-,N/A,,Clear,170,2013-05-06 21:15:00
4:35 PM,71.6,-9999,N/A,30.00,10.0,South,10.4,16.1,N/A,,Clear,180,2013-05-06 21:35:00
4:55 PM,71.6,-9999,N/A,30.00,10.0,South,11.5,-,N/A,,Clear,170,2013-05-06 21:55:00
5:15 PM,71.6,-9999,N/A,29.99,10.0,South,11.5,-,N/A,,Clear,170,2013-05-06 22:15:00
5:55 PM,71.6,-9999,N/A,29.99,10.0,South,11.5,16.1,N/A,,Clear,180,2013-05-06 22:55:00
6:15 PM,71.6,-9999,N/A,29.99,10.0,SSE,10.4,-,N/A,,Clear,160,2013-05-06 23:15:00
6:35 PM,69.8,-9999,N/A,29.98,10.0,South,11.5,-,N/A,,Clear,170,2013-05-06 23:35:00
6:55 PM,69.8,-9999,N/A,29.98,10.0,South,12.7,-,N/A,,Clear,170,2013-05-06 23:55:00
7:15 PM,68.0,-9999,N/A,29.98,10.0,South,12.7,-,N/A,,Clear,170,2013-05-07 00:15:00
7:35 PM,68.0,-9999,N/A,29.98,10.0,South,9.2,-,N/A,,Clear,180,2013-05-07 00:35:00
7:55 PM,66.2,-9999,N/A,29.98,10.0,South,9.2,-,N/A,,Clear,180,2013-05-07 00:55:00
8:15 PM,64.4,-9999,N/A,29.97,10.0,South,8.1,-,N/A,,Clear,180,2013-05-07 01:15:00
8:35 PM,60.8,-9999,N/A,29.97,10.0,South,9.2,-,N/A,,Clear,190,2013-05-07 01:35:00
8:55 PM,59.0,-9999,N/A,29.97,9.0,South,8.1,-,N/A,,Clear,180,2013-05-07 01:55:00
9:15 PM,57.2,-9999,N/A,29.97,10.0,South,5.8,-,N/A,,Clear,190,2013-05-07 02:15:00
9:35 PM,57.2,-9999,N/A,29.98,10.0,South,6.9,-,N/A,,Clear,180,2013-05-07 02:35:00
9:55 PM,55.4,-9999,N/A,29.98,10.0,South,6.9,-,N/A,,Clear,190,2013-05-07 02:55:00
10:15 PM,55.4,-9999,N/A,29.98,10.0,SSW,5.8,-,N/A,,Clear,200,2013-05-07 03:15:00
10:35 PM,53.6,-9999,N/A,29.99,10.0,SW,3.5,-,N/A,,Clear,230,2013-05-07 03:35:00
10:55 PM,53.6,-9999,N/A,29.99,10.0,SSW,4.6,-,N/A,,Clear,210,2013-05-07 03:55:00
11:15 PM,50.0,-9999,N/A,29.99,10.0,SSW,5.8,-,N/A,,Clear,210,2013-05-07 04:15:00
11:35 PM,50.0,-9999,N/A,29.99,10.0,SSW,4.6,-,N/A,,Clear,210,2013-05-07 04:35:00
11:55 PM,50.0,-9999,N/A,29.99,10.0,SSW,5.8,-,N/A,,Clear,210,2013-05-07 04:55:00